Weather History for Buffalo, WY

Change the Weather History Date:

Saturday, September 14, 2013

  Actual Average Record
Temperature  
Mean Temperature 61 °F 59 °F  
Max Temperature 69 °F 72 °F 90 °F (2009)
Min Temperature 52 °F 46 °F 33 °F (2007)
Degree Days  
Heating Degree Days 4 7  
Month to date heating degree days 6 74  
Since 1 July heating degree days 7 139  
Cooling Degree Days 0 1  
Month to date cooling degree days 85 35  
Year to date cooling degree days 699 481  
Growing Degree Days 11 (Base 50)    
Moisture  
Dew Point 56 °F    
Average Humidity 76    
Maximum Humidity 93    
Minimum Humidity 59    
Precipitation  
Precipitation 0.68 in 0.03 in 2.10 in (1982)
Month to date precipitation 1.66 0.52  
Year to date precipitation 6.08 10.79  
Sea Level Pressure  
Sea Level Pressure 30.00 in    
Wind  
Wind Speed 7 mph (NNW)    
Max Wind Speed 24 mph    
Max Gust Speed 33 mph    
Visibility 8 miles    
Events Rain    
T = Trace of Precipitation, MM = Missing Value Source: NWS Daily Summary

Daily Weather History Graph

Daily Weather History Graph

Search for Another Location

Airport:

Trip Planner

Search our weather history database for the weather conditions in past years. The results will help you decide how hot, cold, wet, or windy it might be!

Date:

Astronomy

Sep. 14, 2013 Rise Set
Actual Time 6:45 AM MDT 7:18 PM MDT
Civil Twilight 6:15 AM MDT 7:47 PM MDT
Nautical Twilight 5:41 AM MDT 8:22 PM MDT
Astronomical Twilight 5:05 AM MDT 8:58 PM MDT
Moon 4:10 PM MDT (9/14) 1:10 AM MDT (9/14)
Length of Visible Light 13h 32m
Length of Day
12h 33m
Waxing Gibbous, 73% of the Moon is Illuminated
Sep 14
Waxing Gibbous
Sep 19
Full
Sep 26
Last Quarter
Oct 4
New
Oct 11
First Quarter

Hourly Weather History & Observations

Time (MDT) Temp. Dew Point Humidity Pressure Visibility Wind Dir Wind Speed Gust Speed Precip Events Conditions
12:53 AM 57.0 °F 53.1 °F 87% 29.80 in 10.0 mi Calm Calm - N/A   Partly Cloudy
1:53 AM 55.0 °F 53.1 °F 93% 29.79 in 10.0 mi WSW 3.5 mph - N/A   Clear
2:53 AM 55.0 °F 53.1 °F 93% 29.78 in 10.0 mi WNW 3.5 mph - N/A   Clear
3:53 AM 54.0 °F 51.1 °F 90% 29.80 in 10.0 mi Calm Calm - 0.01 in   Clear
4:53 AM 54.0 °F 50.0 °F 86% 29.81 in 10.0 mi Calm Calm - N/A   Clear
5:53 AM 54.0 °F 50.0 °F 86% 29.83 in 10.0 mi Calm Calm - N/A   Partly Cloudy
6:37 AM 55.4 °F 51.8 °F 88% 29.95 in 10.0 mi Calm Calm - N/A   Mostly Cloudy
6:53 AM 55.9 °F 52.0 °F 87% 29.83 in 10.0 mi Calm Calm - N/A   Overcast
7:53 AM 55.9 °F 53.1 °F 90% 29.85 in 10.0 mi Calm Calm - N/A   Partly Cloudy
8:53 AM 61.0 °F 53.1 °F 75% 29.84 in 10.0 mi North 4.6 mph - N/A   Clear
9:53 AM 63.0 °F 53.1 °F 70% 29.85 in 10.0 mi Variable 3.5 mph - N/A   Partly Cloudy
10:53 AM 66.0 °F 54.0 °F 65% 29.85 in 10.0 mi ENE 6.9 mph - N/A   Mostly Cloudy
11:53 AM 66.0 °F 54.0 °F 65% 29.85 in 10.0 mi North 4.6 mph - N/A   Overcast
12:53 PM 68.0 °F 54.0 °F 61% 29.86 in 10.0 mi North 9.2 mph - N/A   Overcast
1:08 PM 68.0 °F 53.6 °F 60% 29.99 in 10.0 mi North 13.8 mph 23.0 mph N/A   Overcast
1:49 PM 66.2 °F 55.4 °F 68% 29.99 in 10.0 mi North 17.3 mph 26.5 mph N/A   Overcast
1:53 PM 66.9 °F 55.0 °F 66% 29.87 in 10.0 mi NNW 15.0 mph 26.5 mph N/A   Overcast
2:53 PM 64.0 °F 55.9 °F 75% 29.90 in 10.0 mi NNW 20.7 mph 29.9 mph N/A   Overcast
3:08 PM 62.6 °F 55.4 °F 77% 30.02 in 10.0 mi North 21.9 mph 33.4 mph N/A   Overcast
3:35 PM 62.6 °F 57.2 °F 82% 30.02 in 10.0 mi North 20.7 mph 27.6 mph N/A   Overcast
3:43 PM 62.6 °F 57.2 °F 82% 30.03 in 10.0 mi NNW 21.9 mph 28.8 mph N/A   Overcast
3:51 PM 60.8 °F 55.4 °F 82% 30.03 in 10.0 mi North 20.7 mph 29.9 mph N/A   Overcast
3:52 PM 61.0 °F 55.9 °F 83% 29.93 in 10.0 mi North 21.9 mph 29.9 mph N/A   Overcast
4:05 PM 60.8 °F 57.2 °F 88% 30.04 in 4.0 mi NNW 19.6 mph 29.9 mph 0.00 in Rain Light Rain
4:18 PM 59.0 °F 57.2 °F 94% 30.04 in 7.0 mi NNW 13.8 mph 27.6 mph 0.01 in Rain Light Rain
4:53 PM 59.0 °F 57.0 °F 93% 29.95 in 4.0 mi NNW 13.8 mph 25.3 mph 0.02 in Rain Light Rain
5:42 PM 59.0 °F 57.2 °F 94% 30.06 in 4.0 mi NW 9.2 mph - 0.03 in Rain Rain
5:46 PM 59.0 °F 57.2 °F 94% 30.06 in 1.8 mi NNW 10.4 mph - 0.06 in Rain Heavy Rain
5:53 PM 59.0 °F 57.0 °F 93% 29.97 in 1.2 mi NNW 9.2 mph - 0.09 in Rain Heavy Rain
6:00 PM 59.0 °F 57.2 °F 94% 30.07 in 0.8 mi NNW 6.9 mph - 0.10 in Rain Heavy Rain
6:09 PM 59.0 °F 57.2 °F 94% 30.07 in 0.8 mi WNW 4.6 mph - 0.21 in Rain Heavy Rain
6:19 PM 59.0 °F 57.2 °F 94% 30.07 in 1.2 mi West 10.4 mph - 0.26 in Rain Rain
6:22 PM 59.0 °F 57.2 °F 94% 30.07 in 2.0 mi WNW 10.4 mph - 0.26 in Rain Rain
6:32 PM 59.0 °F 57.2 °F 94% 30.07 in 9.0 mi NNW 8.1 mph - 0.27 in Rain Light Rain
6:53 PM 59.0 °F 57.0 °F 93% 29.98 in 7.0 mi NNW 12.7 mph 26.5 mph 0.28 in Rain Light Rain
7:08 PM 59.0 °F 57.2 °F 94% 30.08 in 10.0 mi NNW 12.7 mph - 0.00 in   Overcast
7:39 PM 59.0 °F 57.2 °F 94% 30.10 in 10.0 mi NNW 11.5 mph 19.6 mph 0.00 in   Overcast
7:53 PM 59.0 °F 57.0 °F 93% 30.00 in 10.0 mi NNW 9.2 mph - 0.00 in   Overcast
8:39 PM 59.0 °F 57.2 °F 94% 30.12 in 10.0 mi NW 10.4 mph - 0.00 in   Overcast
8:53 PM 60.1 °F 57.0 °F 90% 30.01 in 10.0 mi NW 11.5 mph - 0.00 in   Overcast
9:02 PM 59.0 °F 57.2 °F 94% 30.13 in 10.0 mi NW 11.5 mph - N/A   Overcast
9:09 PM 59.0 °F 57.2 °F 94% 30.13 in 10.0 mi NNW 8.1 mph - N/A   Overcast
9:20 PM 59.0 °F 57.2 °F 94% 30.13 in 2.5 mi NNW 9.2 mph - 0.07 in Rain Heavy Rain
9:27 PM 59.0 °F 57.2 °F 94% 30.13 in 2.0 mi NW 13.8 mph 18.4 mph 0.09 in Rain Rain
9:41 PM 59.0 °F 57.2 °F 94% 30.14 in 1.5 mi NW 15.0 mph 26.5 mph 0.25 in Rain Heavy Rain
9:50 PM 59.0 °F 57.2 °F 94% 30.14 in 3.0 mi NW 8.1 mph 23.0 mph 0.28 in Rain Light Rain
9:53 PM 59.0 °F 57.0 °F 93% 30.03 in 8.0 mi NNW 6.9 mph 23.0 mph 0.28 in Rain Light Rain
10:24 PM 59.0 °F 57.2 °F 94% 30.15 in 10.0 mi NNW 8.1 mph - 0.00 in   Overcast
10:34 PM 59.0 °F 57.2 °F 94% 30.16 in 10.0 mi NNW 8.1 mph - 0.00 in   Overcast
10:49 PM 59.0 °F 57.2 °F 94% 30.16 in 10.0 mi NNE 4.6 mph - 0.00 in   Overcast
10:53 PM 59.0 °F 57.9 °F 96% 30.03 in 10.0 mi NNE 6.9 mph - 0.00 in   Overcast
11:00 PM 59.0 °F 57.2 °F 94% 30.16 in 10.0 mi NNW 6.9 mph - N/A   Overcast
11:43 PM 59.0 °F 57.2 °F 94% 30.17 in 10.0 mi NNW 5.8 mph - N/A   Overcast
11:53 PM 59.0 °F 57.9 °F 96% 30.04 in 10.0 mi NNW 4.6 mph - N/A   Overcast